Rpm 911 5K — Results

Atlanta, Georgia, United States

1st Place

ENRIQUE SANCHEZ

RPM 911 5k

16:36

2nd Place

James Devine

RPM 911 5k

18:26

3rd Place

Reaves Coker

RPM 911 5k

18:32

# Bib Name Gender Gender Rank Age Group AG Rank Finish Time Pace
101 60 Patrick Carney Male 30:28 9:49 /mi
102 313 DONNA STEWART Female 30:43 9:54 /mi
103 329 A. Unruh Male 30:52 9:57 /mi
104 330 Erika Unruh Female 30:58 9:59 /mi
105 331 Josh Unruh Male 30:58 9:59 /mi
106 112 Caroline Dillon Female 31:04 10:01 /mi
107 90 Erin Connolly Female 31:09 10:02 /mi
108 447 Anthony Mazzeo Male 31:13 10:03 /mi
109 393 Jim Wood Male 31:15 10:04 /mi
110 294 Meghan Schmidt Female 31:24 10:07 /mi
111 229 E. Means Female 31:26 10:07 /mi
112 369 Lily Whitworth Female 31:28 10:08 /mi
113 131 Jennifer Flynn Female 31:34 10:10 /mi
114 1 I. MEANS Male 31:34 10:10 /mi
115 209 Wenke Lee Male 31:48 10:15 /mi
116 382 Laura Wymer Female 32:08 10:21 /mi
117 259 Kate Olsen Female 32:23 10:26 /mi
118 220 M. Makepeace Male 32:28 10:28 /mi
119 28 Brenda Beaver Female 32:33 10:29 /mi
120 467 Savannah Whorton Female 32:34 10:29 /mi
121 372 A. Wilson Female 32:36 10:30 /mi
122 174 Michael Imber Male 32:37 10:30 /mi
123 368 Jason Whitworth Male 32:38 10:31 /mi
124 69 B. Castellaw Jr Male 32:38 10:31 /mi
125 375 Zach Wilson Male 32:39 10:31 /mi
126 380 Catharine Wymer Female 32:46 10:33 /mi
127 373 Brittany Wilson Female 32:49 10:34 /mi
128 14 Kate Anderson Female 32:50 10:35 /mi
129 460 Casey Schambach Female 32:50 10:35 /mi
130 510 R. SHEPHERD Female 32:56 10:37 /mi
131 511 E. HATHAWAY Male 32:59 10:37 /mi
132 142 Laurie Gipson Female 32:59 10:38 /mi
133 231 Mike Means Male 33:01 10:38 /mi
134 66 Brooks Castellaw Male 33:04 10:39 /mi
135 265 Mike Piersa Male 33:11 10:41 /mi
136 310 Forrest Speed Male 33:13 10:42 /mi
137 184 danielle kaba Female 33:13 10:42 /mi
138 458 Ashley Rice Female 33:19 10:44 /mi
139 431 Meredith Foushee Female 33:19 10:44 /mi
140 10 Majeste Akakpotobie Male 33:25 10:46 /mi
141 84 M. Clark Female 33:34 10:49 /mi
142 357 ellen welch Female 33:46 10:53 /mi
143 465 Sebastian Tamayo Male 33:54 10:55 /mi
144 293 Garrett Schmidt Male 33:55 10:55 /mi
145 146 Grant Griffin Male 33:56 10:56 /mi
146 389 Brittany Zwald Female 33:58 10:56 /mi
147 196 Grant Kisling Male 34:08 11:00 /mi
148 24 Hannah Bause Female 34:09 11:00 /mi
149 213 W. Letson Male 34:11 11:01 /mi
150 211 M. Letson Female 34:11 11:01 /mi

Showing 101–150 of 384 results